Погода в Амберге

Германия     49°26′32″N   11°51′20″E
темп.,
°C
ветер,
м/с
пор.,
м/с
влажн.,
%
обл.,
%
осадки,
мм/ч
давл.,
гПа
погр.,
м
25 февраля, чт
чт2501:00+6ююв22900 0.0 103126
04:00+5ююв22880 0.0 103122
07:00+4ююв22880 0.0 103123
10:00+9ююв23720 0.0 1030182
13:00+15ю12550 0.0 1029423
16:00+15ю13590 0.0 1028158
19:00+8ю12860 0.0 102922
22:00+7ю12850 0.0 103022
26 февраля, пт
пт2601:00+5юз12870 0.0 103022
04:00+5зюз128955 0.0 103022
07:00+4зюз229459 0.0 103146
10:00+9зюз248260 0.0 1031266
13:00+12з357362 0.0 1031656
16:00+10сз468792 0.3 1030533
19:00+7с259290 0.3 1032320
22:00+4ссз229669 0.1 103446
27 февраля, сб
сб2701:00+2ссз249435 0.1 1035106
04:000ссз12940 0.0 103528
07:00−1с12960 0.0 103622
10:00+3ссв36760 0.0 1036572
13:00+6св35651 0.0 1036785
16:00+7св35640 0.0 1035851
19:00+2ссв37880 0.0 1036198
22:000св28920 0.0 1036215
28 февраля, вс
вс2801:00−1св26950 0.0 1036162
04:00−1всв28950 0.0 1035250
07:00−1св26972 0.0 1035206
10:00+3всв357313 0.0 1034415
13:00+6всв35547 0.0 1033679
16:00+6всв35530 0.0 1032754
19:00+1всв26770 0.0 1033120
22:000всв398385 0.0 1034262
1 марта, пн
пн101:000всв278292 0.0 1034196
04:00−1всв2681100 0.0 1033195
07:00−1всв2780100 0.0 1033211
10:00+4в365782 0.0 1033366
13:00+9в354478 0.0 1032570
16:00+8в475571 0.0 1031649
19:00+3в3107641 0.0 1032254
22:00+1в22830 0.0 103337